Regional Weather Roundup
Issued by NWS

Home | Current Version | Previous Version | Graphics & Text | Print | Product List | Glossary On
Versions: 1 2 3 4 5 6 7 8 9 10 11 12 13 14 15 16 17 18 19 20 21 22 23 24 25 26 27 28 29 30 31 32 33 34 35 36 37 38 39 40 41 42 43 44 45 46 47 48 49 50
000
ASUS43 KOAX 161302
RWRNE

WEATHER ROUNDUP FOR NEBRASKA
NATIONAL WEATHER SERVICE OMAHA NE
800 AM CDT TUE SEP 16 2014

NOTES: SATELLITE DATA IS BEING USED TO AUGMENT CLOUD COVER ABOVE
       12000 FEET.
       "FAIR" INDICATES FEW OR NO CLOUDS BELOW 12,000 FEET WITH NO
       SIGNIFICANT WEATHER AND/OR OBSTRUCTIONS TO VISIBILITY.

  * THESE STATIONS DO NOT REPORT WEATHER SUCH AS RAIN...SNOW OR FOG.

NEZ001>004-019>022-054>056-161400-
NEBRASKA PANHANDLE

CITY           SKY/WX    TMP DP  RH WIND       PRES   REMARKS
SCOTTSBLUFF    FOG       46  46 100 N7        30.09R VSB 3/4
ALLIANCE       PTCLDY    47  46  97 SW6       30.08R FOG
CHADRON        PTCLDY    45  44  97 W7        30.06R FOG
KIMBALL        PTCLDY    45  44  98 W7        30.12R FOG
SIDNEY         PTCLDY    50  48  93 S12       30.11F FOG
$$

NEZ057>060-069>072-079>082-161400-
SOUTHWEST NEBRASKA

CITY           SKY/WX    TMP DP  RH WIND       PRES   REMARKS
NORTH PLATTE   PTCLDY    51  45  79 VRB6      30.15S
IMPERIAL       MOCLDY    52  50  93 E7        30.15F
LEXINGTON      PTCLDY    51  48  90 S15       30.17F
MCCOOK         CLOUDY    51  47  86 SE9       30.19F
OGALLALA       PTCLDY    51  50  95 S5        30.14F
$$

NEZ005>010-023>029-035>040-094-161400-
NORTH CENTRAL NEBRASKA

CITY           SKY/WX    TMP DP  RH WIND       PRES   REMARKS
VALENTINE      CLEAR     50  44  80 S8        30.08S
AINSWORTH      CLEAR     47  42  82 S13       30.10S
BROKEN BOW     CLEAR     48  44  86 S10       30.16S
O`NEILL        CLEAR     47  45  91 S10       30.16F
ORD            CLEAR     46  43  89 SE7       30.17F
THEDFORD       CLEAR     50  44  78 S12G20    30.14R
$$

NEZ041-046>049-061>064-073>077-083>087-161400-
SOUTH CENTRAL NEBRASKA

CITY           SKY/WX    TMP DP  RH WIND       PRES   REMARKS
GRAND ISLAND   CLEAR     47  43  86 S7        30.23R
AURORA         CLEAR     47  43  87 S6        30.23R
HASTINGS       CLEAR     45  41  86 S6        30.23R
HEBRON         CLEAR     41  39  93 CALM      30.24S
HOLDREGE       PTCLDY    47  45  91 S8        30.20F
KEARNEY *      CLEAR     45  43  93 S12       30.21F
YORK           LGT RAIN  45  45 100 S5        30.24R
$$

NEZ011>018-030>034-042>045-161400-
NORTHEAST NEBRASKA

CITY           SKY/WX    TMP DP  RH WIND       PRES   REMARKS
NORFOLK        CLEAR     46  43  89 S9        30.21S
ALBION         CLEAR     42  39  90 S3        30.21S
BLAIR          CLEAR     45  43  93 CALM      30.23S FOG
COLUMBUS *     CLEAR     39  37  93 CALM      30.24S
FREMONT        CLEAR     44  43  95 CALM      30.23S
TEKAMAH        FOG       41  40  96 CALM      30.23F VSB 1/2
WAYNE          CLEAR     41  40  95 S3        30.22S
$$

NEZ050>053-065>068-078-088>093-161400-
SOUTHEAST NEBRASKA

CITY           SKY/WX    TMP DP  RH WIND       PRES   REMARKS
LINCOLN        CLEAR     42  40  92 CALM      30.24F
OMAHA EPPLEY   FOG       46  44  93 S5        30.25F VSB 1/4
BEATRICE       CLEAR     41  40  95 CALM      30.24S
FALLS CITY     CLEAR     44  43  96 CALM      30.25S
NEBRASKA CITY  CLEAR     44  43  95 SE3       30.25S
PLATTSMOUTH    CLEAR     45  43  93 SE5       30.24S
$$

NEZ044-045-051>053-067-161400-
OMAHA AREA

CITY           SKY/WX    TMP DP  RH WIND       PRES   REMARKS
OMAHA EPPLEY   FOG       46  44  93 S5        30.25F VSB 1/4
BLAIR          CLEAR     45  43  93 CALM      30.23S FOG
FREMONT        CLEAR     44  43  95 CALM      30.23S
MILLARD        CLEAR     44  43  96 SE3       30.24S
OFFUTT AFB     FOG       43  43 100 CALM      30.24S VSB<1/4
PLATTSMOUTH    CLEAR     45  43  93 SE5       30.24S
WAHOO          FAIR      41  39  92 CALM      30.24S
$$


USA.gov is the U.S. government's official web portal to all federal, state and local government web resources and services.